Weather History for Avalon, VC

Change the Weather History Date:

Friday, May 10, 2013

  Actual Average (YMML) Record (YMML)
Temperature  
Mean Temperature 59 °F -  
Max Temperature 73 °F 61 °F 77 °F (2013)
Min Temperature 45 °F 46 °F 37 °F (2011)
Degree Days  
Heating Degree Days 6    
Growing Degree Days 9 (Base 50)    
Moisture  
Dew Point 48 °F    
Average Humidity 70    
Maximum Humidity 93    
Minimum Humidity 36    
Precipitation  
Precipitation 0.00 in - - ()
Sea Level Pressure  
Sea Level Pressure 30.33 in    
Wind  
Wind Speed 5 mph ()    
Max Wind Speed 13 mph    
Max Gust Speed -    
Visibility 6.2 miles    
Events      
Averages and records for this station are not official NWS values.
T = Trace of Precipitation, MM = Missing Value Source: Averaged Metar Reports

Daily Weather History Graph

Daily Weather History Graph

Search for Another Location

Airport:

Trip Planner

Search our weather history database for the weather conditions in past years. The results will help you decide how hot, cold, wet, or windy it might be!

Date:

Astronomy

May. 10, 2013 Rise Set
Actual Time 7:11 AM AEST 5:25 PM AEST
Civil Twilight 6:43 AM AEST 5:53 PM AEST
Nautical Twilight 6:11 AM AEST 6:24 PM AEST
Astronomical Twilight 5:40 AM AEST 6:55 PM AEST
Moon 7:08 AM AEST (5/10) 5:33 PM AEST (5/10)
Length of Visible Light 11h 09m
Length of Day
10h 13m
New Moon, 0% of the Moon is Illuminated
May 10
New Moon
May 18
First Quarter
May 25
Full
Jun 1
Last Quarter
Jun 9
New

Hourly Weather History & Observations

Time (AEST) Temp. Windchill Dew Point Humidity Pressure Visibility Wind Dir Wind Speed Gust Speed Precip Events Conditions
12:00 AM 53 °F - 47 °F 73% 30.35 in - NE 5.8 mph - -  
12:00 AM 51.8 °F - 46.4 °F 82% 30.33 in 6.2 mi NE 5.8 mph - N/A   Unknown
12:30 AM 53.6 °F - 46.4 °F 77% 30.33 in 6.2 mi North 5.8 mph - N/A   Unknown
1:00 AM 50.0 °F - 44.6 °F 82% 30.33 in 6.2 mi NW 4.6 mph - N/A   Unknown
1:30 AM 50.0 °F - 46.4 °F 87% 30.33 in 6.2 mi NNW 4.6 mph - N/A   Unknown
2:00 AM 48.2 °F - 44.6 °F 87% 30.33 in 6.2 mi NW 3.5 mph - N/A   Unknown
2:30 AM 50.0 °F - 46.4 °F 87% 30.33 in 6.2 mi Calm Calm - N/A   Unknown
3:00 AM 48 °F - 45 °F 85% 30.35 in - Calm Calm - -  
3:00 AM 48.2 °F - 44.6 °F 87% 30.33 in 6.2 mi Calm Calm - N/A   Unknown
3:30 AM 50.0 °F - 46.4 °F 87% 30.33 in 6.2 mi Calm Calm - N/A   Unknown
4:00 AM 48.2 °F - 44.6 °F 87% 30.33 in 6.2 mi East 5.8 mph - N/A   Unknown
4:30 AM 48.2 °F - 44.6 °F 87% 30.33 in 6.2 mi Calm Calm - N/A   Unknown
5:00 AM 50.0 °F - 46.4 °F 87% 30.33 in 6.2 mi NE 8.1 mph - N/A   Unknown
5:30 AM 48.2 °F - 44.6 °F 87% 30.33 in 6.2 mi NW 5.8 mph - N/A   Unknown
6:00 AM 47 °F - 44 °F 83% 30.36 in - NW 1.2 mph - -  
6:00 AM 46.4 °F - 42.8 °F 87% 30.36 in 6.2 mi NW 1.2 mph - N/A   Unknown
6:30 AM 46.4 °F - 42.8 °F 87% 30.36 in 6.2 mi Calm Calm - N/A   Unknown
7:00 AM 46.4 °F 43.5 °F 42.8 °F 87% 30.36 in 6.2 mi NNW 5.8 mph - N/A   Unknown
7:30 AM 46.4 °F 43.5 °F 44.6 °F 93% 30.39 in 6.2 mi NNW 5.8 mph - N/A   Unknown
8:00 AM 50.0 °F - 46.4 °F 87% 30.39 in 6.2 mi WNW 4.6 mph - N/A   Unknown
8:30 AM 53.6 °F - 50.0 °F 88% 30.39 in 6.2 mi North 3.5 mph - N/A   Unknown
9:00 AM 58 °F - 52 °F 73% 30.40 in - NNW 1.2 mph - -  
9:00 AM 57.2 °F - 51.8 °F 82% 30.39 in 6.2 mi NNW 1.2 mph - N/A   Unknown
9:30 AM 62.6 °F - 51.8 °F 68% 30.39 in 6.2 mi East 1.2 mph - N/A   Unknown
10:00 AM 62.6 °F - 50.0 °F 63% 30.39 in 6.2 mi South 1.2 mph - N/A   Unknown
10:30 AM 64.4 °F - 51.8 °F 64% 30.39 in 6.2 mi SE 4.6 mph - N/A   Unknown
11:00 AM 66.2 °F - 51.8 °F 60% 30.39 in 6.2 mi SE 5.8 mph - N/A   Unknown
11:30 AM 68.0 °F - 51.8 °F 56% 30.39 in 6.2 mi ESE 4.6 mph - N/A   Unknown
12:00 PM 69 °F - 51 °F 43% 30.38 in - SE 5.8 mph - -  
12:00 PM 68.0 °F - 51.8 °F 56% 30.36 in 6.2 mi SE 5.8 mph - N/A   Unknown
12:30 PM 69.8 °F - 51.8 °F 53% 30.36 in 6.2 mi ESE 9.2 mph - N/A   Unknown
1:00 PM 71.6 °F - 51.8 °F 50% 30.33 in 6.2 mi SE 8.1 mph - N/A   Unknown
1:30 PM 73.4 °F - 51.8 °F 47% 30.33 in 6.2 mi SE 8.1 mph - N/A   Unknown
2:00 PM 71.6 °F - 51.8 °F 50% 30.30 in 6.2 mi SE 9.2 mph - N/A   Unknown
2:30 PM 73.4 °F - 51.8 °F 47% 30.30 in 6.2 mi ESE 10.4 mph - N/A   Unknown
3:00 PM 73 °F - 52 °F 36% 30.31 in - ESE 11.5 mph - -  
3:00 PM 73.4 °F - 51.8 °F 47% 30.30 in 6.2 mi ESE 11.5 mph - N/A   Unknown
3:30 PM 71.6 °F - 51.8 °F 50% 30.30 in 6.2 mi ESE 11.5 mph - N/A   Unknown
4:00 PM 69.8 °F - 51.8 °F 53% 30.30 in 6.2 mi ESE 10.4 mph - N/A   Unknown
4:30 PM 68.0 °F - 53.6 °F 60% 30.30 in 6.2 mi East 9.2 mph - N/A   Unknown
5:00 PM 66.2 °F - 53.6 °F 64% 30.30 in 6.2 mi ENE 6.9 mph - N/A   Unknown
5:30 PM 64.4 °F - 53.6 °F 68% 30.30 in 6.2 mi ENE 8.1 mph - N/A   Unknown
6:00 PM 62 °F - 53 °F 65% 30.32 in - NE 6.9 mph - -  
6:00 PM 62.6 °F - 53.6 °F 72% 30.30 in 6.2 mi NE 6.9 mph - N/A   Unknown
6:30 PM 60.8 °F - 51.8 °F 72% 30.30 in 6.2 mi NNE 6.9 mph - N/A   Unknown
7:00 PM 59.0 °F - 50.0 °F 72% 30.30 in 6.2 mi NE 9.2 mph - N/A   Unknown
7:30 PM 64.4 °F - 46.4 °F 52% 30.30 in 6.2 mi NNE 9.2 mph - N/A   Unknown
8:00 PM 62.6 °F - 46.4 °F 55% 30.30 in 6.2 mi NNE 11.5 mph - N/A   Unknown
8:30 PM 60.8 °F - 46.4 °F 59% 30.30 in 6.2 mi NNE 10.4 mph - N/A   Unknown
9:00 PM 60 °F - 46 °F 50% 30.32 in - North 12.7 mph - -  
9:00 PM 60.8 °F - 46.4 °F 59% 30.30 in 6.2 mi North 12.7 mph - N/A   Unknown
9:30 PM 59.0 °F - 46.4 °F 63% 30.30 in 6.2 mi North 11.5 mph - N/A   Unknown
10:00 PM 57.2 °F - 46.4 °F 67% 30.30 in 6.2 mi North 10.4 mph - N/A   Unknown
10:30 PM 55.4 °F - 44.6 °F 67% 30.30 in 6.2 mi North 3.5 mph - N/A   Unknown
11:00 PM 51.8 °F - 44.6 °F 76% 30.30 in 6.2 mi East 5.8 mph - N/A   Unknown
11:30 PM 50.0 °F - 44.6 °F 82% 30.30 in 6.2 mi East 5.8 mph - N/A   Unknown